Stations météo

Publicité
Bourges, France (7255): Température de l'air & dewpoint: 15.10.2019 04:00:00 - 21.10.2019 04:00:00 (CEST)Bourges, France (7255): Température de l'air 5cm: 15.10.2019 04:00:00 - 21.10.2019 04:00:00 (CEST)Bourges, France (7255): Température de l'air -20cm & Température de l'air -100cm: 15.10.2019 04:00:00 - 21.10.2019 04:00:00 (CEST)Bourges, France (7255): Vitesse du vent & gusts: 15.10.2019 04:00:00 - 21.10.2019 04:00:00 (CEST)Bourges, France (7255): Direction du vent: 15.10.2019 04:00:00 - 21.10.2019 04:00:00 (CEST)Bourges, France (7255): reduced air pressure: 15.10.2019 04:00:00 - 21.10.2019 04:00:00 (CEST)Bourges, France (7255): visibility: 15.10.2019 04:00:00 - 21.10.2019 04:00:00 (CEST)Bourges, France (7255): Ensoleillement: 15.10.2019 04:00:00 - 21.10.2019 04:00:00 (CEST)Bourges, France (7255): Quantités de précipitations: 15.10.2019 04:00:00 - 21.10.2019 04:00:00 (CEST)
Date & Time tt [°C] td [°C] tt 5cm [°C] tt -20cm [°C] tt -100cm [°C] ff [km/h] ff [knt] fx [km/h] fx [knt] dd ppp [hPa] vv [km] sd [min] rr [mm]
21.10.2019 04:00:00 10,9 10,0 10,8 14,5 16,8 16 9 29 16 SW 1013,5 20 0 0,0
21.10.2019 03:00:00 11,0 10,1 10,9 14,6 16,8 15 8 26 14 WSW 1012,6 20 0 0,0
21.10.2019 02:00:00 11,0 9,9 10,9 14,7 16,8 19 10 33 18 WSW 1011,1 20 0 0,0
21.10.2019 01:00:00 11,4 10,5 11,3 14,8 16,8 17 9 36 20 SW 1010,0 20 0 0,0
21.10.2019 00:00:00 11,9 11,1 11,9 14,8 16,8 17 9 32 17 WSW 1008,9 20 0 0,0
20.10.2019 23:00:00 13,0 11,9 12,5 14,9 16,8 16 8 35 19 WSW 1008,3 20 0 0,0
20.10.2019 22:00:00 14,0 13,2 13,1 14,9 16,8 16 9 29 16 SSW 1007,3 20 0 0,0
20.10.2019 21:00:00 13,6 13,3 13,3 14,9 16,8 10 6 16 9 S 1006,2 19 0 0,2
20.10.2019 20:00:00 13,8 13,5 13,4 14,9 16,8 4 2 10 6 SE 1005,3 20 0 0,0
20.10.2019 19:00:00 14,0 13,5 13,8 14,8 16,8 0 0 11 6 N 1005,1 20 0 0,0
20.10.2019 18:00:00 14,1 13,6 14,1 14,8 16,8 5 3 16 8 SE 1004,3 20 0 0,2
20.10.2019 17:00:00 14,1 13,6 13,9 14,7 16,8 10 5 15 8 SE 1004,8 20 0 0,2
20.10.2019 16:00:00 13,7 13,1 13,7 14,6 16,8 6 3 17 9 SE 1004,6 14 0 0,2
20.10.2019 15:00:00 13,7 13,2 13,2 14,5 16,8 6 4 18 10 NE 1003,7 20 0 0,8
20.10.2019 14:00:00 13,1 12,8 13,1 14,5 16,9 12 7 21 11 ESE 1004,3 18 0 0,6
20.10.2019 13:00:00 13,2 13,0 12,5 14,5 16,8 12 6 21 11 E 1004,1 18 0 2,0
20.10.2019 12:00:00 12,5 12,0 12,5 14,5 16,8 8 5 15 8 NE 1004,3 8 0 1,8
20.10.2019 11:00:00 12,5 12,2 12,5 14,5 16,9 9 5 14 7 NNE 1004,4 20 0 2,0
20.10.2019 10:00:00 12,4 12,2 12,3 14,5 16,8 4 2 14 7 N 1004,2 19 0 1,0
20.10.2019 09:00:00 12,2 12,0 12,3 14,5 16,8 6 4 17 9 NNW 1003,5 17 0 4,5
20.10.2019 08:00:00 12,6 12,4 12,5 14,6 16,9 5 3 14 7 NE 1003,2 8 0 1,6
20.10.2019 07:00:00 12,6 12,3 12,5 14,7 16,9 6 4 12 7 ENE 1003,0 13 0 2,0
20.10.2019 06:00:00 12,6 12,3 12,5 14,8 16,9 5 3 21 12 E 1003,6 4,6 0 12,8
20.10.2019 05:00:00 12,6 12,4 12,3 14,9 16,9 8 4 20 11 ENE 1003,4 7 0 5,9
20.10.2019 04:00:00 12,4 12,2 12,1 15,0 16,9 11 6 16 9 E 1003,7 10 0 0,0
20.10.2019 03:00:00 12,6 12,3 12,3 15,0 16,9 10 5 16 8 ENE 1004,7 20 0 0,0
20.10.2019 02:00:00 12,6 12,1 12,2 15,1 16,9 8 4 13 7 NE 1004,9 20 0 0,0
20.10.2019 01:00:00 12,6 12,3 12,4 15,2 16,9 6 4 13 7 E 1005,5 20 0 0,0
20.10.2019 00:00:00 12,7 12,4 12,4 15,3 16,9 6 3 13 7 ENE 1006,0 20 0 0,4
19.10.2019 23:00:00 12,6 12,1 12,4 15,3 16,9 9 5 13 7 E 1006,4 9 0 1,2
19.10.2019 22:00:00 12,7 12,4 12,5 15,4 16,9 9 5 13 7 E 1006,1 20 0 1,2
19.10.2019 21:00:00 12,8 12,2 12,6 15,5 16,9 6 3 11 6 SE 1006,6 12 0 1,2
19.10.2019 20:00:00 13,2 12,3 12,7 15,5 16,9 4 2 6 3 E 1006,0 20 0 0,2
19.10.2019 19:00:00 13,4 12,3 12,9 15,5 16,9 3 1 6 4 E 1005,9 20 0 0,6
19.10.2019 18:00:00 13,9 11,9 14,1 15,5 16,9 4 2 16 9 NW 1005,8 20 0 0,0
19.10.2019 17:00:00 14,3 11,3 15,0 15,3 16,9 6 4 18 10 WNW 1005,9 20 0 0,0
19.10.2019 16:00:00 14,9 11,1 15,6 15,2 16,9 11 6 28 15 NW 1006,0 20 3 0,0
19.10.2019 15:00:00 16,8 11,5 17,3 14,9 16,9 13 7 25 14 W 1005,8 20 0 0,0
19.10.2019 14:00:00 17,1 12,2 16,9 14,8 16,9 18 10 25 14 SW 1006,3 20 0 0,0
19.10.2019 13:00:00 16,2 12,7 16,9 14,6 16,9 13 7 19 11 SSW 1006,8 20 0 0,0
19.10.2019 12:00:00 15,5 12,4 15,9 14,5 17,0 12 6 21 12 SSW 1007,1 20 2 0,0
19.10.2019 11:00:00 14,8 11,6 14,3 14,4 16,9 11 6 17 9 SSW 1007,4 20 0 0,0
19.10.2019 10:00:00 13,8 11,1 12,9 14,4 16,9 7 4 14 8 SSW 1007,5 20 0 0,0
19.10.2019 09:00:00 12,9 10,8 12,0 14,5 17,0 10 6 18 10 S 1007,4 20 0 0,0
19.10.2019 08:00:00 12,6 10,5 12,0 14,6 17,0 10 5 22 12 S 1007,4 20 0 0,0
19.10.2019 07:00:00 12,9 10,4 12,4 14,7 17,0 13 7 22 12 S 1007,4 20 0 0,0
19.10.2019 06:00:00 13,1 10,6 12,6 14,7 17,0 14 8 19 10 SSW 1007,8 20 0 0,0
19.10.2019 05:00:00 13,0 10,7 12,5 14,8 17,0 12 6 19 11 SSW 1008,0 20 0 0,0
19.10.2019 04:00:00 13,3 10,8 12,9 14,9 17,0 14 8 23 12 SSW 1008,5 20 0 0,0
19.10.2019 03:00:00 13,2 10,9 12,6 14,9 17,0 14 7 20 11 SSW 1008,7 20 0 0,0
19.10.2019 02:00:00 13,3 10,8 12,9 15,0 17,0 12 6 18 10 SSW 1009,2 20 0 0,0
19.10.2019 01:00:00 13,4 10,9 12,7 15,1 17,0 12 6 18 10 SSW 1009,6 20 0 0,0
19.10.2019 00:00:00 13,0 11,1 12,4 15,2 17,0 9 5 17 9 SSW 1010,1 20 0 0,0
18.10.2019 23:00:00 13,4 10,9 12,9 15,3 17,0 14 8 28 15 SSW 1010,5 20 0 0,0
18.10.2019 22:00:00 14,0 10,6 12,9 15,5 17,0 18 10 26 14 SSW 1010,5 20 0 0,0
18.10.2019 21:00:00 13,6 10,4 12,9 15,6 17,0 10 5 19 10 SSW 1011,1 20 0 0,0
18.10.2019 20:00:00 13,5 10,8 12,9 15,7 17,0 12 6 16 8 SSW 1011,9 20 0 0,0
18.10.2019 19:00:00 14,4 10,4 13,5 15,7 17,0 11 6 24 13 SSW 1012,0 20 0 0,0
18.10.2019 18:00:00 15,4 10,2 15,2 15,7 17,0 16 9 23 13 SSW 1012,1 20 0 0,0
18.10.2019 17:00:00 16,1 10,0 16,4 15,6 17,0 15 8 29 16 SW 1012,5 20 0 0,0
18.10.2019 16:00:00 16,1 9,0 16,8 15,4 17,0 19 10 38 21 WSW 1012,5 20 21 0,0
18.10.2019 15:00:00 16,4 9,1 17,3 15,2 17,0 18 10 35 19 WSW 1012,8 20 42 0,0
18.10.2019 14:00:00 15,8 8,8 16,7 15,0 17,0 19 10 30 16 SW 1013,1 20 39 0,0
18.10.2019 13:00:00 15,3 10,3 15,5 14,9 17,1 16 9 33 18 WSW 1013,6 20 4 0,0
18.10.2019 12:00:00 14,5 11,1 13,6 14,8 17,1 18 10 31 17 WSW 1013,6 20 0 0,0
18.10.2019 11:00:00 13,3 11,7 12,5 14,7 17,1 8 5 38 20 W 1013,5 20 0 0,4
18.10.2019 10:00:00 13,9 11,2 12,8 14,8 17,1 25 13 48 26 WSW 1012,8 16 35 0,0
18.10.2019 09:00:00 14,2 11,9 12,5 14,8 17,1 20 11 36 19 SW 1011,9 20 0 0,0
18.10.2019 08:00:00 14,3 11,8 12,7 14,8 17,1 22 12 32 18 SSW 1011,2 20 0 0,2
18.10.2019 07:00:00 14,2 12,1 12,9 14,9 17,1 22 12 34 18 SW 1011,2 18 0 1,0
18.10.2019 06:00:00 14,0 12,2 13,1 15,0 17,1 13 7 25 13 SSW 1011,3 16 0 0,0
18.10.2019 05:00:00 14,3 11,6 12,8 15,0 17,1 17 9 31 17 SW 1011,4 20 0 0,2
18.10.2019 04:00:00 14,4 11,9 13,2 15,1 17,1 16 9 28 15 SW 1011,6 20 0 0,0
18.10.2019 03:00:00 14,1 12,8 13,0 15,1 17,1 16 9 26 14 SSW 1012,0 20 0 0,0
18.10.2019 02:00:00 14,1 13,1 13,4 15,1 17,1 17 9 24 13 SSW 1012,1 20 0 0,0
18.10.2019 01:00:00 14,1 13,1 13,7 15,2 17,1 17 9 26 14 S 1012,3 20 0 0,4
18.10.2019 00:00:00 14,1 13,3 13,2 15,2 17,1 14 8 22 12 SW 1013,1 16 0 0,8
17.10.2019 23:00:00 14,0 12,2 12,9 15,3 17,1 14 8 24 13 SSW 1013,1 20 0 0,0
17.10.2019 22:00:00 13,5 11,9 12,8 15,5 17,2 16 9 23 12 SSW 1013,1 20 0 0,0
17.10.2019 21:00:00 13,6 12,2 12,9 15,6 17,1 16 9 22 12 SSW 1013,3 20 0 0,0
17.10.2019 20:00:00 14,6 12,5 13,8 15,6 17,1 16 9 24 13 SSW 1013,1 20 0 0,0
17.10.2019 19:00:00 15,7 13,2 14,7 15,5 17,1 15 8 23 12 SSW 1012,6 20 0 0,0
17.10.2019 18:00:00 15,7 13,4 15,7 15,4 17,2 19 10 31 17 SW 1012,7 20 0 0,0
17.10.2019 17:00:00 16,2 13,5 16,1 15,3 17,2 21 11 37 20 SW 1012,6 20 0 0,0
17.10.2019 16:00:00 16,3 13,6 15,5 15,1 17,2 25 14 40 21 SW 1012,6 20 28 0,0
17.10.2019 15:00:00 15,0 14,0 14,1 15,1 17,2 18 10 30 16 SSW 1012,8 19 0 1,0
17.10.2019 14:00:00 14,1 13,5 13,7 15,0 17,2 12 6 27 14 SSW 1013,0 7 0 2,0
17.10.2019 13:00:00 14,5 13,0 13,7 14,9 17,2 13 7 26 14 S 1012,9 20 0 0,2
17.10.2019 12:00:00 14,2 12,6 13,4 14,9 17,2 20 11 34 19 SSW 1013,1 20 0 1,0
17.10.2019 11:00:00 13,6 12,8 12,9 14,9 17,2 13 7 21 11 SSE 1013,0 10 0 3,1
17.10.2019 10:00:00 13,5 12,4 12,7 14,9 17,2 14 7 21 11 S 1013,0 6 0 1,8
17.10.2019 09:00:00 13,5 12,1 12,7 14,9 17,2 8 4 16 9 SE 1012,9 8 0 1,2
17.10.2019 08:00:00 13,5 11,7 13,2 15,0 17,2 9 5 14 7 SE 1012,2 20 0 0,0
17.10.2019 07:00:00 13,6 11,8 12,8 15,0 17,2 8 4 26 14 SSE 1012,2 20 0 0,0
17.10.2019 06:00:00 14,3 11,4 12,7 15,1 17,3 16 9 27 15 SSW 1012,4 16 0 0,0
17.10.2019 05:00:00 14,5 11,3 14,2 15,1 17,2 11 6 20 11 SSW 1012,8 20 0 0,0
17.10.2019 04:00:00 14,5 11,1 14,1 15,2 17,2 13 7 24 13 SSW 1013,0 20 0 0,0
17.10.2019 03:00:00 14,3 10,7 13,3 15,3 17,2 18 10 25 14 SSW 1012,9 20 0 0,0
17.10.2019 02:00:00 14,6 11,0 13,9 15,3 17,2 16 8 25 13 SSW 1012,7 20 0 0,0
17.10.2019 01:00:00 15,0 11,0 14,5 15,4 17,3 18 10 26 14 SSW 1012,8 20 0 0,0
17.10.2019 00:00:00 15,2 10,8 14,7 15,5 17,3 18 10 30 16 SSW 1013,0 20 0 0,0
16.10.2019 23:00:00 15,2 10,8 14,4 15,6 17,3 22 12 35 19 SSW 1012,8 20 0 0,0
16.10.2019 22:00:00 14,8 10,8 14,0 15,7 17,3 18 10 25 13 SSW 1012,5 20 0 0,0
16.10.2019 21:00:00 14,8 11,2 13,7 15,7 17,3 16 8 21 12 SSW 1012,4 20 0 0,0
16.10.2019 20:00:00 14,8 11,2 13,2 15,7 17,3 13 7 29 15 S 1012,2 20 0 0,0
16.10.2019 19:00:00 15,2 11,6 13,1 15,8 17,3 12 7 30 16 SSW 1012,3 20 0 0,8
16.10.2019 18:00:00 17,3 9,5 16,3 15,8 17,3 17 9 35 19 SSW 1011,8 20 0 0,0
16.10.2019 17:00:00 18,2 8,5 18,2 15,6 17,3 22 12 45 24 SW 1012,1 20 0 0,0
16.10.2019 16:00:00 18,3 8,5 18,3 15,4 17,3 21 11 48 26 SW 1012,4 20 21 0,0
16.10.2019 15:00:00 19,4 9,0 18,9 15,1 17,3 27 15 45 24 SW 1012,6 20 21 0,0
16.10.2019 14:00:00 18,7 9,2 19,9 14,8 17,3 23 12 46 25 SSW 1013,0 20 41 0,0
16.10.2019 13:00:00 18,7 9,7 18,0 14,5 17,4 28 15 41 22 SSW 1013,6 20 55 0,0
16.10.2019 12:00:00 16,6 9,5 17,4 14,3 17,3 23 13 44 24 SSW 1014,1 20 33 0,0
16.10.2019 11:00:00 16,0 9,2 14,7 14,2 17,4 30 16 42 23 SSW 1014,0 20 56 0,0
16.10.2019 10:00:00 13,6 10,0 12,7 14,2 17,4 21 11 28 15 SSW 1014,2 20 49 0,0
16.10.2019 09:00:00 12,0 10,1 11,2 14,3 17,4 16 9 29 15 S 1014,0 20 28 0,0
16.10.2019 08:00:00 11,7 9,8 11,1 14,4 17,3 20 11 32 17 S 1013,9 20 0 0,0
16.10.2019 07:00:00 11,6 9,8 10,9 14,5 17,4 18 10 27 15 S 1014,0 20 0 0,0
16.10.2019 06:00:00 12,0 10,4 11,3 14,6 17,3 15 8 24 13 S 1014,2 20 0 0,0
16.10.2019 05:00:00 12,2 10,4 11,4 14,7 17,4 18 10 24 13 SSW 1014,5 20 0 0,0
16.10.2019 04:00:00 12,3 10,4 11,6 14,8 17,4 15 8 25 13 SSW 1015,0 20 0 0,0
16.10.2019 03:00:00 12,2 9,9 11,5 14,9 17,4 16 9 26 14 SSW 1015,3 20 0 0,0
16.10.2019 02:00:00 11,7 9,8 11,4 15,0 17,4 15 8 24 13 SSW 1015,7 20 0 0,0
16.10.2019 01:00:00 11,7 9,1 10,7 15,2 17,4 18 10 24 13 SSW 1015,6 20 0 0,0
16.10.2019 00:00:00 11,4 9,1 10,9 15,3 17,4 14 8 23 13 SSW 1015,5 20 0 0,0
15.10.2019 23:00:00 12,6 9,1 11,6 15,5 17,4 15 8 28 15 SW 1015,4 20 0 0,0
15.10.2019 22:00:00 11,9 9,1 10,7 15,7 17,4 16 9 29 16 SW 1015,1 20 0 0,0
15.10.2019 21:00:00 11,7 8,7 10,8 15,9 17,3 17 9 29 16 SW 1014,7 20 0 0,0
15.10.2019 20:00:00 12,3 9,1 11,4 16,1 17,4 18 10 28 15 SW 1014,2 20 0 0,0
15.10.2019 19:00:00 12,8 9,4 11,9 16,2 17,4 11 6 36 19 WSW 1013,3 20 40 0,0
15.10.2019 18:00:00 14,0 8,2 14,2 16,2 17,4 21 11 40 22 WSW 1012,4 20 28 0,0
15.10.2019 17:00:00 15,7 8,9 15,2 16,0 17,4 24 13 46 25 WSW 1011,6 20 47 0,0
15.10.2019 16:00:00 14,4 9,2 11,5 15,9 17,4 15 8 53 29 WSW 1011,7 20 31 1,8
15.10.2019 15:00:00 14,5 11,6 13,4 15,7 17,4 15 8 32 17 WSW 1011,4 20 15 0,0
15.10.2019 14:00:00 13,3 11,7 12,5 15,7 17,4 16 9 35 19 W 1011,4 20 0 0,8
15.10.2019 13:00:00 13,6 12,3 12,5 15,7 17,4 16 9 27 15 WSW 1011,0 20 0 1,0
15.10.2019 12:00:00 12,7 11,9 12,1 15,7 17,4 9 5 20 11 W 1011,0 12 0 1,8
15.10.2019 11:00:00 12,1 11,2 11,7 15,8 17,4 9 5 35 19 W 1010,4 12 0 1,6
15.10.2019 10:00:00 12,8 12,0 12,2 15,9 17,4 10 5 16 8 SW 1009,5 15 0 0,2
15.10.2019 09:00:00 12,4 11,8 12,0 16,0 17,4 10 5 19 10 S 1008,9 20 0 0,2
15.10.2019 08:00:00 12,7 11,8 12,3 16,1 17,4 13 7 22 12 SSW 1008,6 20 0 0,0
15.10.2019 07:00:00 12,9 12,0 12,4 16,2 17,3 11 6 18 10 SSW 1008,1 20 0 0,0
15.10.2019 06:00:00 12,6 12,0 12,1 16,3 17,4 9 5 26 14 S 1008,1 20 0 0,6
15.10.2019 05:00:00 12,9 12,4 12,6 16,4 17,3 16 9 22 12 SSW 1008,5 7 0 0,2
15.10.2019 04:00:00 12,9 12,3 12,6 16,6 17,4 10 6 18 10 SSW 1008,1 20 0 0,2

tt = Température de l'air
td = dewpoint
tt 5cm = Température de l'air 5cm
tt -20cm = Température de l'air -20cm
tt -100cm = Température de l'air -100cm
ff = Vitesse du vent
fx = gusts
dd = Direction du vent
ppp = reduced air pressure
vv = visibility
sd = Ensoleillement
rr = Quantités de précipitations

stations d'obs. à proximité